When you browse on this site, cookies collect data to enhance your experience and personalize the content and advertising you see.
Visit our Privacy Policy to learn more. By continuing to use the site, you agree to this use of cookies and data.
  • în România
  • Lista ţărilor
  • Pe 7 zile
  • Temperatura apei
  • Hartă satelitară
  • Meteo pe hartă
  • Widget-uri
  • user-avatar
    Intrare

    Meteo pe oră la Stepanakert

    Astăzi, 20 Aprilie, Sâmbătă

    Timp Temperatura Precipitaţii Vânt Presiune Umiditate
    00:00 +3°C° 0.4 mm 2 m/s 689 mmHg 95%
    01:00 +2°C° 0.7 mm 2 m/s 689 mmHg 95%
    02:00 +2°C° 0.7 mm 2 m/s 689 mmHg 95%
    03:00 +2°C° 0 mm 2 m/s 688 mmHg 96%
    04:00 +1°C° 1.3 mm 2 m/s 688 mmHg 95%
    05:00 +1°C° 1.3 mm 2 m/s 688 mmHg 95%
    06:00 +1°C° 1.3 mm 2 m/s 689 mmHg 95%
    07:00 +2°C° 0.8 mm 2 m/s 689 mmHg 93%
    08:00 +2°C° 0.8 mm 2 m/s 689 mmHg 92%
    09:00 +2°C° 0 mm 2 m/s 690 mmHg 90%
    10:00 +3°C° 0.3 mm 2 m/s 690 mmHg 88%
    11:00 +4°C° 0.3 mm 2 m/s 690 mmHg 87%
    12:00 +4°C° 0.3 mm 2 m/s 691 mmHg 85%
    13:00 +5°C° 0.1 mm 2 m/s 691 mmHg 84%
    14:00 +5°C° 0.1 mm 2 m/s 691 mmHg 84%
    15:00 +4°C° 0 mm 2 m/s 691 mmHg 85%
    16:00 +4°C° 0 mm 2 m/s 691 mmHg 86%
    17:00 +4°C° 0 mm 2 m/s 691 mmHg 87%
    18:00 +4°C° 0 mm 2 m/s 691 mmHg 89%
    19:00 +4°C° 0 mm 1 m/s 691 mmHg 90%
    20:00 +3°C° 0 mm 1 m/s 692 mmHg 91%
    21:00 +3°C° 0 mm 1 m/s 692 mmHg 93%
    22:00 +2°C° 0 mm 1 m/s 692 mmHg 92%
    23:00 +1°C° 0 mm 0 m/s 692 mmHg 92%

    Mâine, 21 Aprilie, Duminică

    Timp Temperatura Precipitaţii Vânt Presiune Umiditate
    00:00 +1°C° 0 mm 0 m/s 692 mmHg 92%
    01:00 +1°C° 0 mm 0 m/s 692 mmHg 92%
    02:00 +1°C° 0 mm 0 m/s 692 mmHg 92%
    03:00 0°C° 0 mm 0 m/s 691 mmHg 92%
    04:00 +1°C° 0 mm 0 m/s 692 mmHg 91%
    05:00 +1°C° 0 mm 0 m/s 692 mmHg 91%
    06:00 +2°C° 0 mm 0 m/s 692 mmHg 90%
    07:00 +4°C° 0 mm 1 m/s 692 mmHg 87%
    08:00 +3°C° 0 mm 2 m/s 692 mmHg 84%
    09:00 +4°C° 0 mm 2 m/s 692 mmHg 82%
    10:00 +5°C° 0.1 mm 2 m/s 692 mmHg 82%
    11:00 +5°C° 0.1 mm 2 m/s 692 mmHg 82%
    12:00 +5°C° 0.1 mm 2 m/s 692 mmHg 83%
    13:00 +5°C° 0 mm 3 m/s 691 mmHg 82%
    14:00 +5°C° 0 mm 3 m/s 691 mmHg 81%
    15:00 +7°C° 0 mm 3 m/s 691 mmHg 80%
    16:00 +5°C° 0.1 mm 3 m/s 691 mmHg 82%
    17:00 +6°C° 0.1 mm 2 m/s 691 mmHg 85%
    18:00 +5°C° 0.1 mm 2 m/s 691 mmHg 88%
    19:00 +5°C° 0.3 mm 2 m/s 692 mmHg 90%
    20:00 +4°C° 0.3 mm 2 m/s 692 mmHg 92%
    21:00 +4°C° 0.3 mm 2 m/s 693 mmHg 94%
    22:00 +5°C° 0.3 mm 1 m/s 693 mmHg 94%
    23:00 +4°C° 0.3 mm 1 m/s 693 mmHg 95%

    Poimâine, 22 Aprilie, Luni

    Timp Temperatura Precipitaţii Vânt Presiune Umiditate
    00:00 +4°C° 0.3 mm 1 m/s 693 mmHg 95%
    01:00 +4°C° 0.1 mm 1 m/s 693 mmHg 95%
    02:00 +4°C° 0.1 mm 1 m/s 692 mmHg 95%
    03:00 +3°C° 0.1 mm 1 m/s 692 mmHg 95%
    04:00 +3°C° 0 mm 1 m/s 692 mmHg 94%
    05:00 +3°C° 0 mm 1 m/s 692 mmHg 93%
    06:00 +3°C° 0 mm 1 m/s 692 mmHg 92%
    07:00 +4°C° 0.2 mm 1 m/s 692 mmHg 88%
    08:00 +4°C° 0.2 mm 2 m/s 692 mmHg 85%
    09:00 +4°C° 0.2 mm 2 m/s 692 mmHg 82%
    10:00 +5°C° 0.3 mm 2 m/s 692 mmHg 81%
    11:00 +4°C° 0.3 mm 3 m/s 692 mmHg 79%
    12:00 +5°C° 0.3 mm 3 m/s 691 mmHg 78%
    13:00 +5°C° 0.5 mm 3 m/s 691 mmHg 79%
    14:00 +6°C° 0.5 mm 2 m/s 691 mmHg 79%
    15:00 +6°C° 0.5 mm 2 m/s 691 mmHg 79%
    16:00 +5°C° 0.8 mm 2 m/s 691 mmHg 83%
    17:00 +6°C° 0.8 mm 1 m/s 691 mmHg 86%
    18:00 +5°C° 0.8 mm 1 m/s 692 mmHg 90%
    19:00 +5°C° 0.8 mm 1 m/s 692 mmHg 91%
    20:00 +5°C° 0.8 mm 1 m/s 693 mmHg 92%
    21:00 +4°C° 0.8 mm 1 m/s 693 mmHg 94%
    22:00 +4°C° 0.7 mm 1 m/s 693 mmHg 93%
    23:00 +4°C° 0.7 mm 1 m/s 694 mmHg 92%

    23 Aprilie, Marţi

    Timp Temperatura Precipitaţii Vânt Presiune Umiditate
    00:00 +4°C° 0.7 mm 1 m/s 694 mmHg 91%
    01:00 +4°C° 0.5 mm 1 m/s 694 mmHg 90%
    02:00 +4°C° 0.5 mm 1 m/s 694 mmHg 89%
    03:00 +4°C° 0.5 mm 1 m/s 694 mmHg 88%
    04:00 +4°C° 0.3 mm 1 m/s 695 mmHg 87%
    05:00 +4°C° 0.3 mm 1 m/s 695 mmHg 87%
    06:00 +4°C° 0.3 mm 1 m/s 695 mmHg 87%
    07:00 +5°C° 0.2 mm 1 m/s 695 mmHg 84%
    08:00 +5°C° 0.2 mm 2 m/s 696 mmHg 82%
    09:00 +6°C° 0.2 mm 2 m/s 696 mmHg 80%
    10:00 +6°C° 0.2 mm 2 m/s 696 mmHg 79%
    11:00 +7°C° 0.2 mm 3 m/s 696 mmHg 78%
    12:00 +7°C° 0.2 mm 3 m/s 696 mmHg 77%
    13:00 +8°C° 0.1 mm 3 m/s 696 mmHg 77%
    14:00 +8°C° 0.1 mm 3 m/s 696 mmHg 76%
    15:00 +8°C° 0.1 mm 3 m/s 695 mmHg 76%
    16:00 +8°C° 0.1 mm 3 m/s 695 mmHg 78%
    17:00 +7°C° 0.1 mm 2 m/s 696 mmHg 80%
    18:00 +7°C° 0.1 mm 2 m/s 696 mmHg 82%
    19:00 +6°C° 0 mm 2 m/s 696 mmHg 83%
    20:00 +5°C° 0 mm 2 m/s 696 mmHg 83%
    21:00 +5°C° 0 mm 1 m/s 697 mmHg 83%
    22:00 +5°C° 0 mm 1 m/s 697 mmHg 82%
    23:00 +4°C° 0 mm 1 m/s 697 mmHg 81%

    24 Aprilie, Miercuri

    Timp Temperatura Precipitaţii Vânt Presiune Umiditate
    00:00 +4°C° 0 mm 1 m/s 697 mmHg 80%
    01:00 +4°C° 0.1 mm 1 m/s 697 mmHg 80%
    02:00 +5°C° 0.1 mm 1 m/s 697 mmHg 81%
    03:00 +5°C° 0.1 mm 1 m/s 697 mmHg 81%
    04:00 +5°C° 0.3 mm 1 m/s 697 mmHg 83%
    05:00 +5°C° 0.3 mm 1 m/s 697 mmHg 86%
    06:00 +5°C° 0.3 mm 1 m/s 698 mmHg 88%
    07:00 +6°C° 0.4 mm 1 m/s 698 mmHg 86%
    08:00 +6°C° 0.4 mm 1 m/s 698 mmHg 83%
    09:00 +7°C° 0.4 mm 1 m/s 698 mmHg 81%
    10:00 +7°C° 0.2 mm 2 m/s 698 mmHg 79%
    11:00 +7°C° 0.2 mm 2 m/s 698 mmHg 77%
    12:00 +8°C° 0.2 mm 2 m/s 698 mmHg 74%
    13:00 +8°C° 0.3 mm 2 m/s 697 mmHg 75%
    14:00 +8°C° 0.3 mm 2 m/s 697 mmHg 75%
    15:00 +8°C° 0.3 mm 2 m/s 696 mmHg 75%
    16:00 +9°C° 0.2 mm 1 m/s 696 mmHg 77%
    17:00 +8°C° 0.2 mm 1 m/s 696 mmHg 79%
    18:00 +8°C° 0.2 mm 1 m/s 696 mmHg 81%
    19:00 +7°C° 0.2 mm 1 m/s 697 mmHg 83%
    20:00 +6°C° 0.2 mm 0 m/s 697 mmHg 85%
    21:00 +5°C° 0.2 mm 0 m/s 697 mmHg 87%
    22:00 +5°C° 0.2 mm 0 m/s 697 mmHg 86%
    23:00 +5°C° 0.2 mm 0 m/s 697 mmHg 86%

    25 Aprilie, Joi

    Timp Temperatura Precipitaţii Vânt Presiune Umiditate
    00:00 +5°C° 0.2 mm 0 m/s 697 mmHg 86%
    01:00 +5°C° 0.1 mm 1 m/s 697 mmHg 85%
    02:00 +5°C° 0.1 mm 1 m/s 697 mmHg 84%
    03:00 +5°C° 0.1 mm 1 m/s 697 mmHg 83%
    04:00 +5°C° 0 mm 1 m/s 697 mmHg 83%
    05:00 +5°C° 0 mm 1 m/s 698 mmHg 82%
    06:00 +5°C° 0 mm 1 m/s 698 mmHg 81%
    07:00 +6°C° 0 mm 1 m/s 698 mmHg 77%
    08:00 +7°C° 0 mm 1 m/s 698 mmHg 73%
    09:00 +9°C° 0 mm 1 m/s 699 mmHg 68%
    10:00 +9°C° 0 mm 1 m/s 699 mmHg 66%
    11:00 +9°C° 0 mm 2 m/s 698 mmHg 64%
    12:00 +10°C° 0 mm 2 m/s 698 mmHg 63%
    13:00 +10°C° 0 mm 2 m/s 698 mmHg 62%
    14:00 +10°C° 0 mm 2 m/s 697 mmHg 61%
    15:00 +12°C° 0 mm 2 m/s 697 mmHg 60%
    16:00 +10°C° 0 mm 2 m/s 697 mmHg 64%
    17:00 +10°C° 0 mm 1 m/s 697 mmHg 68%
    18:00 +10°C° 0 mm 1 m/s 697 mmHg 72%
    19:00 +8°C° 0 mm 1 m/s 697 mmHg 74%
    20:00 +7°C° 0 mm 1 m/s 698 mmHg 76%
    21:00 +6°C° 0 mm 1 m/s 698 mmHg 78%
    22:00 +5°C° 0 mm 2 m/s 698 mmHg 77%
    23:00 +5°C° 0 mm 2 m/s 698 mmHg 76%
    Arată mai mult